Regional Weather Roundup
Issued by NWS

Home | Current Version | Previous Version | Text Only | Print | Product List | Glossary On
Versions: 1 2 3 4 5 6 7 8 9 10 11 12 13 14 15 16 17 18 19 20 21 22 23 24 25 26 27 28 29 30 31 32 33 34 35 36 37 38 39 40 41 42 43 44 45 46 47 48 49 50
000
ASUS43 KFSD 191810
RWRSD

WEATHER ROUNDUP FOR SOUTH DAKOTA
NATIONAL WEATHER SERVICE SIOUX FALLS SD
100 PM CDT TUE AUG 19 2014

NOTE: "FAIR" INDICATES FEW OR NO CLOUDS BELOW 12,000 FEET WITH NO
SIGNIFICANT WEATHER AND/OR OBSTRUCTIONS TO VISIBILITY.


SDZ001>005-009-010-012>017-191900-
NORTHWEST AND NORTH CENTRAL SOUTH DAKOTA

CITY           SKY/WX    TMP DP  RH WIND       PRES   REMARKS
BUFFALO          N/A     86  56  35 S10       29.74F
FAITH            N/A     83  59  44 S12       29.81F
MOBRIDGE       SUNNY     81  62  52 S5        29.77F
$$

SDZ012>016-024>037-041>051-057-063-072>074-191900-
SOUTHWEST AND SOUTH CENTRAL SOUTH DAKOTA

CITY           SKY/WX    TMP DP  RH WIND       PRES   REMARKS
RAPID CTY ARPT MOSUNNY   80  61  52 SE12      29.83F
PIERRE         SUNNY     85  58  39 VRB5      29.78F
CUSTER         SUNNY     80  49  33 NE6       29.96F
ELLSWORTH AFB  SUNNY     81  60  49 S12       29.83F
PHILIP         SUNNY     88  55  32 SE6       29.79F
PINE RIDGE     SUNNY     88  58  36 S7        29.82F
WINNER         FAIR      86  58  38 E5        29.83F
$$

SDZ004>011-016>023-039-040-191900-
NORTHEAST SOUTH DAKOTA

CITY           SKY/WX    TMP DP  RH WIND       PRES   REMARKS
ABERDEEN       SUNNY     82  60  47 NW10      29.79F
WATERTOWN      SUNNY     78  62  57 NW10      29.81F
SISSETON         N/A     81  65  58 N7        29.76F
$$

SDZ017-020-022-023-036>040-048>070-191900-
SOUTHEAST SOUTH DAKOTA

CITY           SKY/WX    TMP DP  RH WIND       PRES   REMARKS
SIOUX FALLS    MOSUNNY   82  60  47 N5        29.82F
HURON          SUNNY     83  59  44 W6        29.79F
CHAMBERLAIN    SUNNY     81  61  50 E5        29.82F
MITCHELL       SUNNY     82  59  45 CALM      29.82F
YANKTON        MOSUNNY   81  63  54 SW9       29.83S
$$

ABBREVIATIONS USED IN REMARKS
   TC - TEMPERATURE IN CELSIUS
  WCI - WIND CHILL INDEX
   HX - HEAT INDEX
  VSB - VISIBILITY



USA.gov is the U.S. government's official web portal to all federal, state and local government web resources and services.